Location: Kuppenheim
(48.8299°N, 8.2568°E)
Time: 09:30:47
(UTC+00:00)

SJ 16-02 - Pass Details

Date: 20 June 2021
Orbit: 606 x 616 km, 75.0° (Epoch: 27 July)

Event Time Altitude Azimuth Distance (km) Brightness Sun altitude
Rises 00:33:17 0° 324° (NW) 2,875 5.4 -16.3°
Reaches altitude 10° 00:36:07 10° 306° (NW) 1,964 4.2 -16.2°
Maximum altitude 00:39:01 18° 264° (W) 1,518 3.1 -16.0°
Enters shadow 00:40:01 17° 247° (WSW) 1,573 3.1 -16.0°
